Historique des stations

Station météo de Saint-Pierre-de-Jards







Données météorologiques pour le 04/12/2022
Date
Heure
Températures Humidité Point de rosée Vitesse
du vent
Direction Rafales Windchill Pression Pluviométrie
Cumul
Date
Heure
Températures Humidité Point de rosée Vitesse
du vent
Direction Rafales Windchill Pression Pluviométrie
Cumul
04/12/2022 16:494.2 °C87.0 %2.2 °C1 km/hNE3 km/h3.31011 hPa0.8 mm
04/12/2022 16:344.2 °C87.0 %2.2 °C1 km/hNE3 km/h2.61011 hPa0.6 mm
04/12/2022 16:194.3 °C87.0 %2.3 °C-NE1 km/h4.11011 hPa0.4 mm
04/12/2022 16:034.3 °C87.0 %2.3 °C---4.31011 hPa0.2 mm
04/12/2022 15:484.3 °C87.0 %2.3 °C---4.31011 hPa0.2 mm
04/12/2022 15:334.3 °C87.0 %2.3 °C---4.31011 hPa0.2 mm
04/12/2022 15:184.3 °C87.0 %2.3 °C---4.31011 hPa0.2 mm
04/12/2022 15:034.3 °C87.0 %2.3 °C---4.31011 hPa0.2 mm
04/12/2022 14:484.3 °C87.0 %2.3 °C---4.31011 hPa0.2 mm
04/12/2022 14:334.3 °C87.0 %2.3 °C---4.31011 hPa0.2 mm
04/12/2022 14:184.3 °C87.0 %2.3 °C---4.31011 hPa0.2 mm
04/12/2022 14:034.3 °C87.0 %2.3 °C---4.31010 hPa0.2 mm
04/12/2022 13:484.2 °C87.0 %2.2 °C2 km/hNE3 km/h4.21010 hPa0.2 mm
04/12/2022 13:334.2 °C87.0 %2.2 °C1 km/hNE3 km/h2.21010 hPa0.2 mm
04/12/2022 13:174.2 °C87.0 %2.2 °C2 km/hNE3 km/h2.21010 hPa0.2 mm
04/12/2022 13:024.2 °C87.0 %2.2 °C1 km/hNE2 km/h4.21010 hPa0.2 mm
04/12/2022 12:474.1 °C87.0 %2.1 °C---4.11010 hPa0.2 mm
04/12/2022 12:323.9 °C87.0 %1.9 °C---3.91010 hPa0.2 mm
04/12/2022 12:173.9 °C87.0 %1.9 °C---3.91010 hPa0.2 mm
04/12/2022 12:024.0 °C87.0 %2.0 °C---4.01010 hPa0.2 mm
04/12/2022 11:473.9 °C87.0 %1.9 °C-NE1 km/h3.91010 hPa0.2 mm
04/12/2022 11:323.9 °C87.0 %1.9 °C---3.91010 hPa0.2 mm
04/12/2022 11:173.8 °C87.0 %1.8 °C-NE2 km/h3.81011 hPa0.2 mm
04/12/2022 11:023.8 °C87.0 %1.8 °C1 km/hNE3 km/h1.71010 hPa0.2 mm
04/12/2022 10:073.7 °C87.0 %1.7 °C1 km/hNE5 km/h3.71010 hPa0.2 mm
04/12/2022 10:063.6 °C87.0 %1.6 °C2 km/hNE4 km/h2.61010 hPa0.2 mm
04/12/2022 10:013.6 °C87.0 %1.6 °C2 km/hNE4 km/h1.51010 hPa0.2 mm
04/12/2022 09:063.4 °C87.0 %1.4 °C1 km/hNE4 km/h1.31010 hPa0.2 mm
04/12/2022 09:013.4 °C87.0 %1.4 °C2 km/hNE4 km/h1.31010 hPa0.2 mm
04/12/2022 08:063.4 °C87.0 %1.4 °C1 km/hNE4 km/h3.41010 hPa0.2 mm
04/12/2022 08:013.4 °C87.0 %1.4 °C2 km/hNE4 km/h1.31010 hPa0.2 mm
04/12/2022 07:053.4 °C87.0 %1.4 °C2 km/hNE5 km/h0.81010 hPa0.2 mm
04/12/2022 07:003.4 °C87.0 %1.4 °C2 km/hNE4 km/h1.31010 hPa0.2 mm
04/12/2022 06:053.5 °C87.0 %1.5 °C3 km/hNE5 km/h0.91009 hPa0.2 mm
04/12/2022 06:003.5 °C87.0 %1.5 °C2 km/hNE5 km/h0.91009 hPa0.2 mm
04/12/2022 05:053.6 °C87.0 %1.6 °C3 km/hNE6 km/h0.11009 hPa0.2 mm
04/12/2022 05:003.5 °C87.0 %1.5 °C3 km/hNE6 km/h0.31010 hPa0.2 mm
04/12/2022 04:093.4 °C87.0 %1.4 °C2 km/hNE3 km/h1.31009 hPa0.2 mm
04/12/2022 04:043.4 °C87.0 %1.4 °C2 km/hNE4 km/h1.71009 hPa0.2 mm
04/12/2022 03:093.5 °C87.0 %1.5 °C3 km/hNE5 km/h0.51009 hPa0.2 mm
04/12/2022 03:043.4 °C87.0 %1.4 °C3 km/hNE5 km/h0.81009 hPa0.2 mm
04/12/2022 02:093.6 °C87.0 %1.6 °C3 km/hNE5 km/h0.41009 hPa0.2 mm
04/12/2022 02:043.6 °C87.0 %1.6 °C3 km/hNE5 km/h1.11009 hPa0.2 mm
04/12/2022 02:033.7 °C87.0 %1.7 °C3 km/hNE5 km/h0.91010 hPa0.2 mm
04/12/2022 01:083.7 °C87.0 %1.7 °C2 km/hNE4 km/h1.21010 hPa0.2 mm
04/12/2022 01:033.7 °C87.0 %1.7 °C3 km/hNE5 km/h1.21010 hPa0.2 mm
04/12/2022 00:483.8 °C87.0 %1.8 °C3 km/hNE4 km/h2.21010 hPa0.2 mm
04/12/2022 00:333.8 °C87.0 %1.8 °C3 km/hNE5 km/h1.71010 hPa0.0 mm
04/12/2022 00:183.7 °C87.0 %1.7 °C3 km/hNE5 km/h1.21011 hPa0.0 mm
04/12/2022 00:033.7 °C87.0 %1.7 °C4 km/hNE6 km/h1.21010 hPa0.0 mm


Minima :

Température : 3.4 °C
Humidité : 87.0 %
Point de rosée : 1.4 °C
Vent moyen : 1 km/h
Windchill : 0.1
Pression atm. : 1009 hPa
Maxima :

Température : 4.3 °C
Humidité : 87.0 %
Point de rosée : 2.3 °C
Vent moyen : 4 km/h
Windchill : 4.3
Pression atm. : 1011 hPa
Rafales max : 6 km/h
Cumul de pluie sur 24H : 0.8 mm

Saint-Pierre-de-Jards est une commune du département Indre (36).
La station météorologique du réseau de l'association la plus proche de Saint-Pierre-de-Jards est celle de Luçay-le-Libre



Icône Facebook Association Météo Centre Icône Twitter Association Météo Centre Icône Chaîne Youtube Association Météo Centre Icône contact Association Météo Centre Icône Insta Association Météo Centre